Погода в Березовке

Россия / Чувашская Республика     55°12′43″N   46°48′17″E
темп.,
°C
ветер,
м/с
пор.,
м/с
влажн.,
%
обл.,
%
осадки,
мм/ч
давл.,
гПа
погр.,
м
6 мая, чт
чт600:00+3ююз229233 0.0 101225
03:00+6юз2490100 0.1 1013121
06:00+7ююз379598 0.6 1013208
09:00+12юз367752 0.6 1015484
12:00+17юз585139 0.1 10141753
15:00+18юз5851100 0.1 10142099
18:00+15ююз4965100 0.0 1014702
21:00+10ююв3108381 0.0 1014212
7 мая, пт
пт700:00+10ю31183100 0.0 1014253
03:00+9ю31279100 0.0 1014304
06:00+10ю41372100 0.0 1014455
09:00+13ю51161100 0.0 1013670
12:00+15ююз6115588 0.0 10131589
15:00+15юз61162100 0.9 10131933
18:00+8ссз3792100 0.9 1015419
21:00+7зсз139554 1.2 1017190
8 мая, сб
сб800:00+5ссв11961 0.0 101810
03:00+4св11940 0.0 101810
06:00+6всв24895 0.0 1019132
09:00+12вюв35665 0.0 1017715
12:00+17ююв575462 0.0 10141629
15:00+18ююз4952100 0.1 10131669
18:00+16ю2568100 0.0 1012127
21:00+12ююв2586100 0.0 101270
9 мая, вс
вс900:00+11ююв41379100 0.0 1011356
03:00+12ююв31473100 0.1 1010583
06:00+13ю41372100 0.2 1010649
09:00+14юз3779100 0.3 1011645
12:00+11зсз3594100 1.9 1013442
15:00+8сз3896100 7.4 1016448
18:00+8ссз3796100 1.7 1018549
21:00+7ссз2795100 2.1 1020376
10 мая, пн
пн1000:00+7ссз2895100 0.1 1021363
03:00+6ссз2894100 0.2 1024309
06:00+6с3893100 0.0 1026388
09:00+10ссв467179 0.0 1028781
12:00+13ссв465445 0.0 10281150
15:00+15ссв45494 0.0 10281382
18:00+13ссв37595 0.0 1029621
21:00+7св23811 0.0 103154